Doylestown, PA

5:42 AM EDT on July 26, 2017 (GMT -0400)
Doylestown

Weather History for KDYL - December, 2013

Change the Weather History Date:

Wednesday, December 18, 2013

  Actual Average (KTTN) Record (KTTN)
Temperature  
Mean Temperature 26 °F -  
Max Temperature 34 °F 41 °F 66 °F (2006)
Min Temperature 17 °F 26 °F -1 °F (1919)
Degree Days  
Heating Degree Days 40    
Moisture  
Dew Point 18 °F    
Average Humidity 74    
Maximum Humidity 96    
Minimum Humidity 54    
Precipitation  
Precipitation 0.00 in - - ()
Sea Level Pressure  
Sea Level Pressure 30.11 in    
Wind  
Wind Speed 5 mph (West)    
Max Wind Speed 15 mph    
Max Gust Speed 23 mph    
Visibility 10 miles    
Events      
Averages and records for this station are not official NWS values.
T = Trace of Precipitation, MM = Missing Value Source: NWS Daily Summary

Daily Weather History Graph

Daily Weather History Graph

Search for Another Location

Airport or City:

Trip Planner

Search our weather history database for the weather conditions in past years. The results will help you decide how hot, cold, wet, or windy it might be!

Date:

Astronomy

Dec. 18, 2013 Rise Set
Actual Time 7:18 AM EST 4:36 PM EST
Civil Twilight 6:47 AM EST 5:07 PM EST
Nautical Twilight 6:13 AM EST 5:41 PM EST
Astronomical Twilight 5:40 AM EST 6:14 PM EST
Moon 6:06 PM EST (12/18) 7:56 AM EST (12/18)
Length of Visible Light 10h 19m
Length of Day
9h 17m
Full, 98% of the Moon is Illuminated
Dec 18
Full
Dec 25
Last Quarter
Jan 1
New
Jan 7
First Quarter
Jan 15
Full

Hourly Weather History & Observations

Time (EST) Temp. Windchill Dew Point Humidity Pressure Visibility Wind Dir Wind Speed Gust Speed Precip Events Conditions
12:54 AM 18.0 °F 12.7 °F 17.1 °F 96% 29.99 in 10.0 mi West 3.5 mph - N/A   Overcast
1:54 AM 19.9 °F - 17.1 °F 89% 30.01 in 10.0 mi Calm Calm - N/A   Overcast
2:54 AM 19.9 °F 14.9 °F 17.1 °F 89% 30.00 in 10.0 mi NNE 3.5 mph - N/A   Mostly Cloudy
3:54 AM 19.0 °F - 17.1 °F 92% 30.01 in 10.0 mi Calm Calm - N/A   Mostly Cloudy
4:54 AM 17.1 °F 11.7 °F 15.1 °F 92% 30.02 in 10.0 mi West 3.5 mph - N/A   Clear
5:54 AM 17.1 °F 10.0 °F 16.0 °F 96% 30.04 in 10.0 mi SW 4.6 mph - N/A   Clear
6:54 AM 19.0 °F 12.3 °F 17.1 °F 92% 30.05 in 10.0 mi West 4.6 mph - N/A   Clear
7:54 AM 23.0 °F 15.8 °F 19.9 °F 88% 30.07 in 10.0 mi West 5.8 mph - N/A   Clear
8:54 AM 27.0 °F 18.7 °F 19.9 °F 75% 30.09 in 10.0 mi West 8.1 mph - N/A   Clear
9:54 AM 30.0 °F 24.1 °F 21.0 °F 69% 30.11 in 10.0 mi WNW 5.8 mph - N/A   Clear
10:54 AM 32.0 °F 23.0 °F 19.9 °F 61% 30.10 in 10.0 mi WNW 11.5 mph 18.4 mph N/A   Clear
11:54 AM 34.0 °F 26.0 °F 19.0 °F 54% 30.09 in 10.0 mi WNW 10.4 mph - N/A   Clear
12:54 PM 34.0 °F 24.2 °F 19.0 °F 54% 30.09 in 10.0 mi WNW 15.0 mph 23.0 mph N/A   Clear
1:54 PM 33.1 °F 24.4 °F 19.9 °F 59% 30.10 in 10.0 mi WSW 11.5 mph 17.3 mph N/A   Mostly Cloudy
2:54 PM 33.1 °F 24.9 °F 19.0 °F 56% 30.11 in 10.0 mi West 10.4 mph - N/A   Overcast
3:54 PM 33.1 °F 25.5 °F 19.0 °F 56% 30.14 in 10.0 mi West 9.2 mph - N/A   Mostly Cloudy
4:54 PM 30.0 °F 25.2 °F 19.0 °F 64% 30.15 in 10.0 mi WSW 4.6 mph - N/A   Partly Cloudy
5:54 PM 28.9 °F - 19.0 °F 67% 30.16 in 10.0 mi Calm Calm - N/A   Overcast
6:54 PM 30.0 °F 24.1 °F 19.0 °F 64% 30.18 in 10.0 mi SW 5.8 mph - N/A   Mostly Cloudy
7:54 PM 28.9 °F 22.8 °F 18.0 °F 64% 30.20 in 10.0 mi WSW 5.8 mph - N/A   Clear
8:54 PM 27.0 °F 21.6 °F 18.0 °F 69% 30.20 in 10.0 mi SW 4.6 mph - N/A   Clear
9:54 PM 25.0 °F 19.3 °F 18.0 °F 75% 30.20 in 10.0 mi SW 4.6 mph - N/A   Clear
10:54 PM 25.0 °F 20.7 °F 18.0 °F 75% 30.20 in 10.0 mi SW 3.5 mph - N/A   Clear
11:54 PM 21.0 °F 16.2 °F 17.1 °F 85% 30.21 in 10.0 mi SSW 3.5 mph - N/A   Clear